TimeMDT,TemperatureF,Dew PointF,Humidity,Sea Level PressureIn,VisibilityMPH,Wind Direction,Wind SpeedMPH,Gust SpeedMPH,PrecipitationIn,Events,Conditions,WindDirDegrees,DateUTC
12:00 AM,48,29,35,,,West,16.1,,,,,260,2013-10-25 06:00:00
12:00 AM,48.4,28.8,47,-9999,-9999.0,West,16.1,-,N/A,,Unknown,260,2013-10-25 06:00:00
1:00 AM,45.9,29.8,54,-9999,-9999.0,West,12.7,-,N/A,,Unknown,280,2013-10-25 07:00:00
2:00 AM,43.7,30.2,59,-9999,-9999.0,West,12.7,-,N/A,,Unknown,280,2013-10-25 08:00:00
3:00 AM,44.1,30.0,58,-9999,-9999.0,West,12.7,-,N/A,,Unknown,280,2013-10-25 09:00:00
4:00 AM,41.5,28.9,61,-9999,-9999.0,West,11.5,-,N/A,,Unknown,280,2013-10-25 10:00:00
5:00 AM,46.2,29.7,53,-9999,-9999.0,WNW,15.0,-,N/A,,Unknown,290,2013-10-25 11:00:00
6:00 AM,44,32,50,,,WNW,16.1,,,,,300,2013-10-25 12:00:00
6:00 AM,43.5,31.6,63,-9999,-9999.0,WNW,16.1,-,N/A,,Unknown,300,2013-10-25 12:00:00
7:00 AM,37.8,29.8,73,-9999,-9999.0,NW,10.4,-,N/A,,Unknown,310,2013-10-25 13:00:00
8:00 AM,35.4,29.5,79,-9999,-9999.0,WNW,8.1,-,N/A,,Unknown,290,2013-10-25 14:00:00
9:00 AM,39.7,31.6,73,-9999,-9999.0,West,9.2,-,N/A,,Unknown,260,2013-10-25 15:00:00
10:00 AM,48.0,34.5,60,-9999,-9999.0,West,9.2,-,N/A,,Unknown,270,2013-10-25 16:00:00
11:00 AM,53.2,34.0,48,-9999,-9999.0,West,9.2,-,N/A,,Unknown,270,2013-10-25 17:00:00
12:00 PM,58,29,22,,,North,3.5,,,,,350,2013-10-25 18:00:00
12:00 PM,57.7,29.5,34,-9999,-9999.0,North,3.5,-,N/A,,Unknown,350,2013-10-25 18:00:00
1:00 PM,58.5,28.0,31,-9999,-9999.0,NNW,4.6,-,N/A,,Unknown,340,2013-10-25 19:00:00
2:00 PM,60.8,29.1,30,-9999,-9999.0,NW,1.2,-,N/A,,Unknown,320,2013-10-25 20:00:00
3:00 PM,61.0,28.6,29,-9999,-9999.0,ESE,3.5,-,N/A,,Unknown,120,2013-10-25 21:00:00
4:00 PM,62.4,26.2,25,-9999,-9999.0,SSE,8.1,-,N/A,,Unknown,160,2013-10-25 22:00:00
5:00 PM,61.0,26.4,27,-9999,-9999.0,SSE,8.1,-,N/A,,Unknown,160,2013-10-25 23:00:00
6:00 PM,54,28,24,,,East,5.8,,,,,100,2013-10-26 00:00:00
6:00 PM,54.1,27.7,36,-9999,-9999.0,East,5.8,-,N/A,,Unknown,100,2013-10-26 00:00:00
7:00 PM,45.1,29.7,55,-9999,-9999.0,ESE,5.8,-,N/A,,Unknown,110,2013-10-26 01:00:00
8:00 PM,42.3,29.1,60,-9999,-9999.0,ESE,3.5,-,N/A,,Unknown,120,2013-10-26 02:00:00
9:00 PM,40.6,28.8,63,-9999,-9999.0,SSW,5.8,-,N/A,,Unknown,200,2013-10-26 03:00:00
10:00 PM,39.2,28.6,66,-9999,-9999.0,South,5.8,-,N/A,,Unknown,190,2013-10-26 04:00:00
11:00 PM,38.1,28.9,70,-9999,-9999.0,South,8.1,-,N/A,,Unknown,190,2013-10-26 05:00:00